Tracking 19146 objects as of 23-Apr-2018
HD Live streaming from Space Station
objects crossing your sky now

SL-24 PLAT

Track SL-24 PLAT now!
10-day predictions


NORAD ID: 40049
Int'l Code: 2014-033AR
Perigee: 602.7 km
Apogee: 621.2 km
Inclination: 97.9 °
Period: 96.8 minutes
Semi major axis: 6982 km
RCS: Unknown
Launch date: June 19, 2014
Source: Commonwealth of Independent States (former USSR) (CIS)
Launch site: Orenburg, Russia (OREN)

Note: This is SATELLITE DEBRIS
aabbcc
Your satellite tracking list
Your tracking list is empty




NASA's NSSDC Master Catalog

Two Line Element Set (TLE):
1 40049U 14033AR  18112.63055387 +.00000313 +00000-0 +40325-4 0  9993
2 40049 097.9125 027.6840 0013252 011.9750 348.1779 14.87809501207905
Source of the keplerian elements: Caltech